Location: Czu?�w
(50.1404°N, 18.9919°E)
Time: 05:20:50
(UTC+00:00)

Cosmos 1076 Rocket - Pass Details

Date: 27 October 2020
Orbit: 589 x 613 km, 82.5° (Epoch: 25 November)

Event Time Altitude Azimuth Distance (km) Brightness Sun altitude
Rises 18:03:10 0° 344° (NNW) 2,836 7.3 -25.2°
Reaches altitude 10° 18:05:26 10° 339° (NNW) 1,930 6.4 -25.6°
Maximum altitude 18:09:30 45° 267° (W) 813 4.5 -26.2°
Enters shadow 18:11:35 25° 208° (SSW) 1,212 5.1 -26.6°
